Regional Weather Roundup
Issued by NWS Sioux Falls, SD

Home | Current Version | Previous Version | Graphics & Text | Print | Product List | Glossary Off
Versions: 1 2 3 4 5 6 7 8 9 10 11 12 13 14 15 16 17 18 19 20 21 22 23 24 25 26 27 28 29 30 31 32 33 34 35 36 37 38 39 40 41 42 43 44 45 46 47 48 49 50

000
ASUS43 KFSD 030810
RWRFSD

WEATHER ROUNDUP FOR SE SOUTH DAKOTA/SW MINNESOTA/NW IOWA
NATIONAL WEATHER SERVICE SIOUX FALLS SD
300 AM CDT THU SEP 03 2015

NOTE: "FAIR" INDICATES FEW OR NO CLOUDS BELOW 12,000 FEET WITH NO
SIGNIFICANT WEATHER AND OR OBSTRUCTIONS TO VISIBILITY.


SDZ038>040-050-052>070-030900-
SOUTHEAST SOUTH DAKOTA

CITY           SKY/WX    TMP DP  RH WIND       PRES   REMARKS
BROOKINGS      CLEAR     70  66  88 SE8       29.85S
CHAMBERLAIN    CLEAR     69  65  88 SE6       29.76S
HURON          CLEAR     72  70  93 SE10      29.75F
MADISON        FAIR      68  68 100 S7        29.84S
MITCHELL       CLEAR     71  70  96 SE8       29.78S
SIOUX FALLS    CLEAR     71  69  93 SE5       29.83S
WINNER           N/A     77  60  55 S14       29.77S
YANKTON        CLEAR     66  64  94 E6        29.79F
$$

MNZ071-072-080-081-089-090-097-098-030900-
SOUTHWEST MINNESOTA

CITY           SKY/WX    TMP DP  RH WIND       PRES   REMARKS
FAIRMONT       CLEAR     70  57  64 S6        29.88
JACKSON        CLEAR     68  66  94 SE5       29.88S FOG
LUVERNE        CLEAR     70  68  94 CALM      29.85F FOG
MARSHALL       CLEAR     70  64  83 SE8       29.85F
MONTEVIDEO     CLOUDY    70  70 100 SE7       29.86F FOG
PIPESTONE      CLEAR     72  68  88 SE7       29.86S FOG
REDWOOD FALLS  FOG       70  69  97 E6        29.85F VSB 1/4
TRACY          CLEAR     69  69  98 S6        29.86S FOG
WINDOM         CLEAR     70  68  94 CALM      29.87F
WORTHINGTON    CLEAR     70  66  88 SE3       29.87S
$$

IAZ001>003-012>014-020>022-031-032-NEZ013-014-SDZ071-030900-
NORTHWEST IOWA

CITY           SKY/WX    TMP DP  RH WIND       PRES   REMARKS
CHEROKEE       CLEAR     70  70  99 S5        29.86S
DENISON        CLEAR     73  70  88 S8G17     29.86S
ESTHERVILLE    CLEAR     65  65 100 SE6       29.88S FOG
LE MARS        CLEAR     73  70  88 S9        29.84F
ORANGE CITY    CLEAR     72  70  94 S6        29.85S
SHELDON        CLEAR     70  70 100 SE7       29.84F
SIOUX CITY     CLEAR     72  67  84 E9        29.83F
SPENCER        CLEAR     70  67  90 SE5       29.87S FOG
STORM LAKE     CLEAR     70  70 100 S9        29.88F
$$

ABBREVIATIONS USED IN REMARKS
   TC - TEMPERATURE IN CELSIUS
  WCI - WIND CHILL INDEX
   HX - HEAT INDEX
  VSB - VISIBILITY



USA.gov is the U.S. government's official web portal to all federal, state and local government web resources and services.